STARLINK-34711, 64912

Orbit data source: Space-Track

STARLINK-34711, 64912 is a payload satellite owned by SpaceX/Seattle (US) in LEO that was launched on Sat, 26 Jul 2025 UTC via an FALCON 9 launch vehicle from the Air Force Eastern Test Range (AFETR). Payload-class satellites include a variety of spacecraft equipped with specific instruments for various scientific and technological missions. These include communications satellites like Starlink; space stations such as the ISS; scientific satellites like the Hubble; Earth observation satellites from companies like Planet Labs, Umbra, and HawkEye 360; GPS; miniature CubeSats for education and research; and military/defense satellites.

Loading next visibility...
Identifier
64912, 2025-157J
Orbit
LEO
Country
Flag of USUS
Related business
Manufacturer
SpaceX/Seattle
Mission
Operational Commercial Communications
Bus & Motor
STARLINK V2MO, Unknown motor
Mass
575 kg wet, ~530 kg dry
Launch date (UTC)
2025-07-26 (10 months ago)
Launch vehicle
FALCON 9
Launch site
Air Force Eastern Test Range (AFETR)
Object type
Payload
Rocket body
Debris
Shape & HBR
Box + 2 Pan, 17.7 m
Radar Cross Section
36.964 m², Large (>1 m²)

Expand to show TLE details & history
Last TLE update: 21 hours ago

TLE from 21 hours ago
0 STARLINK-34711
1 64912U 25157J   26144.98814484  .00030972  00000-0  10533-2 0  9990
2 64912  53.1590 351.3983 0001141  72.5503 287.5622 15.30205520 47802
Epoch: 2026-05-24T23:42Z
TLE epoch observation values (Epoch: 2026-05-24T23:42:55.714Z)
Latitude
-0.00004°
Longitude
113.08373°
Altitude
475.862 km
Speed
7.629 km/s
True Right ascension
23h 25m 35s
True Declination
0° 00' 00"
Sunlit
Object was in daylight at epoch
Visualization orbit readout
Latitude
Unknown
Longitude
Unknown
Altitude
Unknown
Speed
Unknown
Apparent Right ascension
Unknown
Apparent Declination
Unknown
Sunlit
N/A
Visualization observer readout
Local Sidereal Time
06:09:56
Azimuth
Unknown
Elevation
Unknown
Doppler factor
Unknown
Orbital elements
Apogee altitude
476.237 km
Perigee altitude
474.673 km
Semi-major axis
6,853.592 km
Eccentricity
0.00011
Inclination
53.159°
RAAN
351.3983°
Arg. of periapsis
72.5503°
True anomaly
287.54973°
Mean anomaly
287.5622°
Eccentric anomaly
287.55597°
Mean motion
3.8253 °/min
Orbital period
94.11 mins
BSTAR
0.0010533
Loading maneuver chart data...
Computing Atmospheric mass density...
Loading historical data...
Loading historical data...
Loading historical data...
Loading historical data...
Loading historical data...
Loading historical data...
Loading historical data...

Documentation

Showing up to 5 results
|